Tracking 31027 objects as of 19-Jul-2025
HD Live streaming from Space Station
objects crossing your sky now

STARLINK-2631

Track STARLINK-2631 now!
10-day predictions
STARLINK-2631 is classified as:


NORAD ID: 48366
Int'l Code: 2021-038P
Perigee: 315.6 km
Apogee: 324.4 km
Inclination: 53.0 °
Period: 90.8 minutes
Semi major axis: 6690 km
RCS: Unknown
Launch date: May 4, 2021
Source: United States (US)
Launch site: AIR FORCE EASTERN TEST RANGE (AFETR)
Your satellite tracking list
Your tracking list is empty




NASA's NSSDC Master Catalog

Two Line Element Set (TLE):
1 48366U 21038P   25199.91668981  .00229432  00000-0  88021-3 0  9999
2 48366  53.0473 304.1298 0006508 332.3400   5.4017 15.86231725232747
Source of the keplerian elements: AFSPC